Time,TemperatureF,DewpointF,PressureIn,WindDirection,WindDirectionDegrees,WindSpeedMPH,WindSpeedGustMPH,Humidity,HourlyPrecipIn,Conditions,Clouds,dailyrainin,SoftwareType,DateUTC
2013-05-18 00:01:00,53.8,47.4,30.11,West,270,0.7,2.2,79,0.00,,,0.00,pywws,2013-05-18 07:01:00,
2013-05-18 00:06:00,53.8,47.4,30.11,South,180,0.7,2.2,79,0.00,,,0.00,pywws,2013-05-18 07:06:00,
2013-05-18 00:11:00,53.8,47.8,30.11,North,-999,0.0,1.6,80,0.00,,,0.00,pywws,2013-05-18 07:11:00,
2013-05-18 00:16:00,53.8,47.4,30.11,NW,315,0.7,1.6,79,0.00,,,0.00,pywws,2013-05-18 07:16:00,
2013-05-18 00:21:00,53.6,47.2,30.11,North,0,0.7,1.6,79,0.00,,,0.00,pywws,2013-05-18 07:21:00,
2013-05-18 00:26:00,53.2,47.9,30.11,South,180,0.7,2.2,82,0.00,,,0.00,pywws,2013-05-18 07:26:00,
2013-05-18 00:31:00,53.1,47.7,30.11,South,180,0.7,1.6,82,0.00,,,0.00,pywws,2013-05-18 07:31:00,
2013-05-18 00:36:00,52.9,47.5,30.11,North,-999,0.0,1.6,82,0.00,,,0.00,pywws,2013-05-18 07:36:00,
2013-05-18 00:41:00,53.2,47.9,30.11,NE,45,1.6,2.2,82,0.00,,,0.00,pywws,2013-05-18 07:41:00,
2013-05-18 00:46:00,53.1,47.7,30.11,NW,315,2.2,3.1,82,0.00,,,0.00,pywws,2013-05-18 07:46:00,
2013-05-18 00:51:00,53.4,48.1,30.11,SE,135,0.7,3.1,82,0.00,,,0.00,pywws,2013-05-18 07:51:00,
2013-05-18 00:56:00,53.1,47.7,30.11,North,-999,0.0,0.7,82,0.00,,,0.00,pywws,2013-05-18 07:56:00,
2013-05-18 01:01:00,53.2,47.9,30.11,North,-999,0.0,0.0,82,0.00,,,0.00,pywws,2013-05-18 08:01:00,
2013-05-18 01:06:00,53.2,47.9,30.11,North,-999,0.0,0.0,82,0.00,,,0.00,pywws,2013-05-18 08:06:00,
2013-05-18 01:11:00,53.1,47.7,30.11,North,-999,0.0,1.6,82,0.00,,,0.00,pywws,2013-05-18 08:11:00,
2013-05-18 01:16:00,53.1,47.7,30.11,North,-999,0.0,0.0,82,0.00,,,0.00,pywws,2013-05-18 08:16:00,
2013-05-18 01:21:00,52.9,47.9,30.11,North,-999,0.0,0.0,83,0.00,,,0.00,pywws,2013-05-18 08:21:00,
2013-05-18 01:26:00,52.7,47.7,30.12,NE,45,1.6,2.2,83,0.00,,,0.00,pywws,2013-05-18 08:26:00,
2013-05-18 01:31:00,53.4,48.1,30.11,North,-999,0.0,0.0,82,0.00,,,0.00,pywws,2013-05-18 08:31:00,
2013-05-18 01:36:00,52.9,47.5,30.11,North,0,0.7,1.6,82,0.00,,,0.00,pywws,2013-05-18 08:36:00,
2013-05-18 01:41:00,52.9,47.5,30.12,North,0,2.2,3.1,82,0.00,,,0.00,pywws,2013-05-18 08:41:00,
2013-05-18 01:46:00,52.7,47.7,30.11,North,-999,0.0,0.0,83,0.00,,,0.00,pywws,2013-05-18 08:46:00,
2013-05-18 01:51:00,52.5,47.5,30.11,West,270,1.6,3.1,83,0.00,,,0.00,pywws,2013-05-18 08:51:00,
2013-05-18 01:56:00,52.9,47.5,30.11,North,-999,0.0,1.6,82,0.00,,,0.00,pywws,2013-05-18 08:56:00,
2013-05-18 02:01:00,52.5,47.2,30.11,North,-999,0.0,0.0,82,0.00,,,0.00,pywws,2013-05-18 09:01:00,
2013-05-18 02:06:00,52.5,47.5,30.12,North,0,1.6,2.2,83,0.00,,,0.00,pywws,2013-05-18 09:06:00,
2013-05-18 02:11:00,52.5,47.2,30.12,North,-999,0.0,0.0,82,0.00,,,0.00,pywws,2013-05-18 09:11:00,
2013-05-18 02:16:00,52.5,47.2,30.12,West,270,0.7,2.2,82,0.00,,,0.00,pywws,2013-05-18 09:16:00,
2013-05-18 02:21:00,52.5,47.5,30.12,North,-999,0.0,0.0,83,0.00,,,0.00,pywws,2013-05-18 09:21:00,
2013-05-18 02:26:00,52.5,47.2,30.12,North,-999,0.0,0.0,82,0.00,,,0.00,pywws,2013-05-18 09:26:00,
2013-05-18 02:31:00,52.5,47.2,30.12,North,-999,0.0,0.0,82,0.00,,,0.00,pywws,2013-05-18 09:31:00,
2013-05-18 02:36:00,52.3,47.0,30.12,North,-999,0.0,0.0,82,0.00,,,0.00,pywws,2013-05-18 09:36:00,
2013-05-18 02:41:00,52.3,47.0,30.12,NE,45,1.6,2.2,82,0.00,,,0.00,pywws,2013-05-18 09:41:00,
2013-05-18 02:46:00,52.3,47.0,30.12,North,0,3.1,3.8,82,0.00,,,0.00,pywws,2013-05-18 09:46:00,
2013-05-18 02:51:00,52.5,47.2,30.12,North,-999,0.0,0.0,82,0.00,,,0.00,pywws,2013-05-18 09:51:00,
2013-05-18 02:56:00,52.3,47.0,30.12,North,-999,0.0,0.7,82,0.00,,,0.00,pywws,2013-05-18 09:56:00,
2013-05-18 03:01:00,52.2,46.8,30.12,North,-999,0.0,0.0,82,0.00,,,0.00,pywws,2013-05-18 10:01:00,
2013-05-18 03:06:00,52.2,46.8,30.12,North,-999,0.0,0.0,82,0.00,,,0.00,pywws,2013-05-18 10:06:00,
2013-05-18 03:11:00,52.0,47.0,30.12,North,-999,0.0,0.0,83,0.00,,,0.00,pywws,2013-05-18 10:11:00,
2013-05-18 03:16:00,52.0,47.3,30.12,North,-999,0.0,0.0,84,0.00,,,0.00,pywws,2013-05-18 10:16:00,
2013-05-18 03:21:00,52.0,47.3,30.12,North,-999,0.0,0.0,84,0.00,,,0.00,pywws,2013-05-18 10:21:00,
2013-05-18 03:26:00,51.8,47.1,30.12,North,-999,0.0,0.0,84,0.00,,,0.00,pywws,2013-05-18 10:26:00,
2013-05-18 03:31:00,51.8,47.1,30.12,North,-999,0.0,0.0,84,0.00,,,0.00,pywws,2013-05-18 10:31:00,
2013-05-18 03:36:00,51.8,47.1,30.12,North,-999,0.0,0.0,84,0.00,,,0.00,pywws,2013-05-18 10:36:00,
2013-05-18 03:41:00,51.8,47.1,30.12,North,-999,0.0,0.0,84,0.00,,,0.00,pywws,2013-05-18 10:41:00,
2013-05-18 03:46:00,51.8,47.1,30.12,North,-999,0.0,0.0,84,0.00,,,0.00,pywws,2013-05-18 10:46:00,
2013-05-18 03:51:00,51.8,47.1,30.12,North,-999,0.0,0.0,84,0.00,,,0.00,pywws,2013-05-18 10:51:00,
2013-05-18 03:56:00,51.8,47.1,30.12,North,-999,0.0,0.0,84,0.00,,,0.00,pywws,2013-05-18 10:56:00,
2013-05-18 04:01:00,51.8,47.1,30.12,North,-999,0.0,0.0,84,0.00,,,0.00,pywws,2013-05-18 11:01:00,
2013-05-18 04:06:00,52.2,47.2,30.12,North,0,0.7,1.6,83,0.00,,,0.00,pywws,2013-05-18 11:06:00,
2013-05-18 04:11:00,51.8,46.8,30.12,North,-999,0.0,0.0,83,0.00,,,0.00,pywws,2013-05-18 11:11:00,
2013-05-18 04:16:00,51.6,46.9,30.12,North,-999,0.0,0.0,84,0.00,,,0.00,pywws,2013-05-18 11:16:00,
2013-05-18 04:21:00,51.6,47.3,30.12,North,-999,0.0,0.0,85,0.00,,,0.00,pywws,2013-05-18 11:21:00,
2013-05-18 04:26:00,51.8,46.8,30.12,North,0,0.7,2.2,83,0.00,,,0.00,pywws,2013-05-18 11:26:00,
2013-05-18 04:31:00,51.8,47.1,30.12,North,-999,0.0,0.0,84,0.00,,,0.00,pywws,2013-05-18 11:31:00,
2013-05-18 04:36:00,51.6,47.3,30.12,North,-999,0.0,0.0,85,0.00,,,0.00,pywws,2013-05-18 11:36:00,
2013-05-18 04:41:00,51.6,47.3,30.12,North,0,0.7,2.2,85,0.00,,,0.00,pywws,2013-05-18 11:41:00,
2013-05-18 04:46:00,51.8,46.8,30.12,North,0,0.7,1.6,83,0.00,,,0.00,pywws,2013-05-18 11:46:00,
2013-05-18 04:51:00,51.6,46.9,30.12,North,-999,0.0,0.0,84,0.00,,,0.00,pywws,2013-05-18 11:51:00,
2013-05-18 04:56:00,51.6,47.3,30.12,North,-999,0.0,0.0,85,0.00,,,0.00,pywws,2013-05-18 11:56:00,
2013-05-18 05:01:00,51.6,47.3,30.12,North,-999,0.0,0.0,85,0.00,,,0.00,pywws,2013-05-18 12:01:00,
2013-05-18 05:06:00,51.6,47.3,30.12,North,-999,0.0,0.0,85,0.00,,,0.00,pywws,2013-05-18 12:06:00,
2013-05-18 05:11:00,51.6,47.3,30.13,North,0,0.7,1.6,85,0.00,,,0.00,pywws,2013-05-18 12:11:00,
2013-05-18 05:16:00,51.4,47.1,30.13,North,0,1.6,2.2,85,0.00,,,0.00,pywws,2013-05-18 12:16:00,
2013-05-18 05:21:00,52.2,46.8,30.13,SE,135,0.7,2.2,82,0.00,,,0.00,pywws,2013-05-18 12:21:00,
2013-05-18 05:26:00,51.8,46.5,30.13,North,-999,0.0,0.0,82,0.00,,,0.00,pywws,2013-05-18 12:26:00,
2013-05-18 05:31:00,51.6,46.9,30.13,North,-999,0.0,0.0,84,0.00,,,0.00,pywws,2013-05-18 12:31:00,
2013-05-18 05:36:00,51.6,46.9,30.13,North,-999,0.0,0.0,84,0.00,,,0.00,pywws,2013-05-18 12:36:00,
2013-05-18 05:41:00,51.6,46.9,30.13,North,-999,0.0,0.0,84,0.00,,,0.00,pywws,2013-05-18 12:41:00,
2013-05-18 05:46:00,51.6,46.9,30.13,North,0,0.7,1.6,84,0.00,,,0.00,pywws,2013-05-18 12:46:00,
2013-05-18 05:51:00,51.6,46.9,30.13,North,-999,0.0,0.0,84,0.00,,,0.00,pywws,2013-05-18 12:51:00,
2013-05-18 06:01:00,51.4,46.8,30.13,North,-999,0.0,0.0,84,0.00,,,0.00,pywws,2013-05-18 13:01:00,
2013-05-18 06:06:00,51.4,46.8,30.13,North,-999,0.0,0.0,84,0.00,,,0.00,pywws,2013-05-18 13:06:00,
2013-05-18 06:11:00,51.4,46.8,30.13,North,-999,0.0,0.0,84,0.00,,,0.00,pywws,2013-05-18 13:11:00,
2013-05-18 06:16:00,51.6,46.9,30.14,North,-999,0.0,0.0,84,0.00,,,0.00,pywws,2013-05-18 13:16:00,
2013-05-18 06:21:00,51.6,46.9,30.14,North,-999,0.0,0.0,84,0.00,,,0.00,pywws,2013-05-18 13:21:00,
2013-05-18 06:26:00,51.4,46.8,30.14,North,-999,0.0,0.0,84,0.00,,,0.00,pywws,2013-05-18 13:26:00,
2013-05-18 06:31:00,51.6,46.9,30.14,North,-999,0.0,0.0,84,0.00,,,0.00,pywws,2013-05-18 13:31:00,
2013-05-18 06:36:00,51.8,46.8,30.14,North,-999,0.0,0.0,83,0.00,,,0.00,pywws,2013-05-18 13:36:00,
2013-05-18 06:41:00,51.8,46.8,30.14,North,-999,0.0,0.0,83,0.00,,,0.00,pywws,2013-05-18 13:41:00,
2013-05-18 06:46:00,51.8,46.8,30.14,North,-999,0.0,0.0,83,0.00,,,0.00,pywws,2013-05-18 13:46:00,
2013-05-18 06:51:00,51.8,46.8,30.14,North,-999,0.0,0.0,83,0.00,,,0.00,pywws,2013-05-18 13:51:00,
2013-05-18 07:01:00,51.8,46.8,30.14,North,-999,0.0,0.0,83,0.00,,,0.00,pywws,2013-05-18 14:01:00,
2013-05-18 07:08:00,51.8,46.8,30.14,North,-999,0.0,0.0,83,0.00,,,0.00,pywws,2013-05-18 14:08:00,
2013-05-18 07:13:00,51.8,46.8,30.14,North,-999,0.0,0.0,83,0.00,,,0.00,pywws,2013-05-18 14:13:00,
2013-05-18 07:18:00,51.8,46.8,30.14,North,-999,0.0,0.0,83,0.00,,,0.00,pywws,2013-05-18 14:18:00,
2013-05-18 07:23:00,52.0,47.0,30.14,North,-999,0.0,0.0,83,0.00,,,0.00,pywws,2013-05-18 14:23:00,
2013-05-18 07:28:00,52.2,47.2,30.14,North,-999,0.0,0.0,83,0.00,,,0.00,pywws,2013-05-18 14:28:00,
2013-05-18 07:33:00,52.3,47.3,30.14,North,-999,0.0,0.0,83,0.00,,,0.00,pywws,2013-05-18 14:33:00,
2013-05-18 07:38:00,52.3,47.3,30.14,North,-999,0.0,0.0,83,0.00,,,0.00,pywws,2013-05-18 14:38:00,
2013-05-18 07:43:00,52.5,47.5,30.15,North,-999,0.0,0.0,83,0.00,,,0.00,pywws,2013-05-18 14:43:00,
2013-05-18 07:48:00,52.5,47.5,30.15,North,-999,0.0,0.0,83,0.00,,,0.00,pywws,2013-05-18 14:48:00,
2013-05-18 08:01:00,52.9,47.9,30.14,North,-999,0.0,0.0,83,0.00,,,0.00,pywws,2013-05-18 15:01:00,
2013-05-18 08:02:00,53.1,48.0,30.15,North,-999,0.0,0.0,83,0.00,,,0.00,pywws,2013-05-18 15:02:00,
2013-05-18 08:06:00,52.7,47.7,30.15,North,-999,0.0,0.0,83,0.00,,,0.00,pywws,2013-05-18 15:06:00,
2013-05-18 08:11:00,53.1,48.0,30.15,North,-999,0.0,0.0,83,0.00,,,0.00,pywws,2013-05-18 15:11:00,
2013-05-18 08:16:00,53.2,48.2,30.15,North,-999,0.0,0.0,83,0.00,,,0.00,pywws,2013-05-18 15:16:00,
2013-05-18 08:21:00,53.1,47.7,30.15,North,-999,0.0,0.0,82,0.00,,,0.00,pywws,2013-05-18 15:21:00,
2013-05-18 08:26:00,53.4,48.1,30.15,North,-999,0.0,0.0,82,0.00,,,0.00,pywws,2013-05-18 15:26:00,
2013-05-18 08:31:00,53.2,47.9,30.15,North,-999,0.0,0.0,82,0.00,,,0.00,pywws,2013-05-18 15:31:00,
2013-05-18 08:36:00,53.8,47.8,30.15,North,-999,0.0,0.0,80,0.00,,,0.00,pywws,2013-05-18 15:36:00,
2013-05-18 08:41:00,53.8,48.1,30.15,North,-999,0.0,0.0,81,0.00,,,0.00,pywws,2013-05-18 15:41:00,
2013-05-18 08:46:00,54.1,48.1,30.16,North,-999,0.0,0.0,80,0.00,,,0.00,pywws,2013-05-18 15:46:00,
2013-05-18 08:51:00,54.0,47.9,30.16,North,0,0.7,1.6,80,0.00,,,0.00,pywws,2013-05-18 15:51:00,
2013-05-18 09:01:00,54.3,47.3,30.15,North,0,2.2,3.1,77,0.00,,,0.00,pywws,2013-05-18 16:01:00,
2013-05-18 09:06:00,54.5,47.4,30.16,North,-999,0.0,0.0,77,0.00,,,0.00,pywws,2013-05-18 16:06:00,
2013-05-18 09:11:00,54.5,46.4,30.16,North,-999,0.0,0.0,74,0.00,,,0.00,pywws,2013-05-18 16:11:00,
2013-05-18 09:16:00,54.9,47.4,30.16,North,-999,0.0,0.0,76,0.00,,,0.00,pywws,2013-05-18 16:16:00,
2013-05-18 09:21:00,55.0,46.9,30.15,North,-999,0.0,0.0,74,0.00,,,0.00,pywws,2013-05-18 16:21:00,
2013-05-18 09:26:00,54.9,47.4,30.16,North,-999,0.0,0.0,76,0.00,,,0.00,pywws,2013-05-18 16:26:00,
2013-05-18 09:31:00,54.1,47.1,30.16,North,-999,0.0,0.0,77,0.00,,,0.00,pywws,2013-05-18 16:31:00,
2013-05-18 09:36:00,54.1,46.7,30.16,North,-999,0.0,0.0,76,0.00,,,0.00,pywws,2013-05-18 16:36:00,
2013-05-18 09:41:00,54.3,47.6,30.16,North,-999,0.0,0.0,78,0.00,,,0.00,pywws,2013-05-18 16:41:00,
2013-05-18 09:46:00,54.7,48.3,30.16,North,-999,0.0,0.0,79,0.00,,,0.00,pywws,2013-05-18 16:46:00,
2013-05-18 09:51:00,54.5,47.1,30.16,North,-999,0.0,0.7,76,0.00,,,0.00,pywws,2013-05-18 16:51:00,
2013-05-18 10:01:00,54.3,46.6,30.16,North,-999,0.0,0.0,75,0.00,,,0.00,pywws,2013-05-18 17:01:00,
2013-05-18 10:05:00,54.0,46.6,30.16,North,-999,0.0,0.0,76,0.00,,,0.00,pywws,2013-05-18 17:05:00,
2013-05-18 10:10:00,53.8,46.7,30.16,North,-999,0.0,0.0,77,0.00,,,0.00,pywws,2013-05-18 17:10:00,
2013-05-18 10:15:00,54.0,47.6,30.16,North,-999,0.0,0.0,79,0.00,,,0.00,pywws,2013-05-18 17:15:00,
2013-05-18 10:20:00,54.1,47.8,30.16,North,-999,0.0,0.0,79,0.00,,,0.00,pywws,2013-05-18 17:20:00,
2013-05-18 10:25:00,54.1,47.8,30.16,North,-999,0.0,0.0,79,0.00,,,0.00,pywws,2013-05-18 17:25:00,
2013-05-18 10:30:00,54.5,48.1,30.16,North,-999,0.0,0.0,79,0.00,,,0.00,pywws,2013-05-18 17:30:00,
2013-05-18 10:35:00,54.7,48.3,30.16,North,-999,0.0,0.0,79,0.00,,,0.00,pywws,2013-05-18 17:35:00,
2013-05-18 10:40:00,54.7,48.6,30.17,North,-999,0.0,1.6,80,0.00,,,0.00,pywws,2013-05-18 17:40:00,
2013-05-18 10:45:00,55.2,48.8,30.17,North,-999,0.0,0.0,79,0.00,,,0.00,pywws,2013-05-18 17:45:00,
2013-05-18 10:50:00,55.6,48.5,30.16,North,-999,0.0,0.0,77,0.00,,,0.00,pywws,2013-05-18 17:50:00,
2013-05-18 11:01:00,55.4,48.3,30.17,North,-999,0.0,1.6,77,0.00,,,0.00,pywws,2013-05-18 18:01:00,
2013-05-18 11:06:00,54.9,47.8,30.17,North,-999,0.0,0.0,77,0.00,,,0.00,pywws,2013-05-18 18:06:00,
2013-05-18 11:11:00,54.0,46.2,30.18,SE,135,1.6,2.2,75,0.00,,,0.00,pywws,2013-05-18 18:11:00,
2013-05-18 11:16:00,54.1,47.1,30.18,North,-999,0.0,0.0,77,0.00,,,0.00,pywws,2013-05-18 18:16:00,
2013-05-18 11:21:00,54.3,47.3,30.18,North,-999,0.0,0.0,77,0.00,,,0.00,pywws,2013-05-18 18:21:00,
2013-05-18 11:26:00,55.6,49.2,30.18,North,-999,0.0,0.0,79,0.00,,,0.00,pywws,2013-05-18 18:26:00,
2013-05-18 11:31:00,55.4,48.7,30.18,North,-999,0.0,0.0,78,0.00,,,0.00,pywws,2013-05-18 18:31:00,
2013-05-18 11:36:00,55.6,49.2,30.17,North,0,1.6,2.2,79,0.00,,,0.00,pywws,2013-05-18 18:36:00,
2013-05-18 11:41:00,55.4,48.3,30.18,North,-999,0.0,0.0,77,0.00,,,0.00,pywws,2013-05-18 18:41:00,
2013-05-18 11:46:00,55.9,48.8,30.18,North,-999,0.0,0.0,77,0.00,,,0.00,pywws,2013-05-18 18:46:00,
2013-05-18 11:51:00,55.9,49.2,30.18,North,-999,0.0,0.0,78,0.00,,,0.00,pywws,2013-05-18 18:51:00,
2013-05-18 12:01:00,55.6,48.5,30.19,North,-999,0.0,0.7,77,0.00,,,0.00,pywws,2013-05-18 19:01:00,
2013-05-18 12:06:00,55.6,48.1,30.19,North,-999,0.0,1.6,76,0.00,,,0.00,pywws,2013-05-18 19:06:00,
2013-05-18 12:11:00,55.9,47.8,30.19,North,-999,0.0,0.0,74,0.00,,,0.00,pywws,2013-05-18 19:11:00,
2013-05-18 12:16:00,55.8,48.0,30.18,North,0,1.6,3.8,75,0.00,,,0.00,pywws,2013-05-18 19:16:00,
2013-05-18 12:21:00,55.2,46.4,30.19,North,-999,0.0,0.0,72,0.00,,,0.00,pywws,2013-05-18 19:21:00,
2013-05-18 12:26:00,55.8,48.0,30.19,North,-999,0.0,0.0,75,0.00,,,0.00,pywws,2013-05-18 19:26:00,
2013-05-18 12:31:00,55.9,48.1,30.19,North,-999,0.0,0.0,75,0.00,,,0.00,pywws,2013-05-18 19:31:00,
2013-05-18 12:36:00,55.8,48.0,30.19,North,-999,0.0,0.0,75,0.00,,,0.00,pywws,2013-05-18 19:36:00,
2013-05-18 12:41:00,56.3,49.2,30.19,North,-999,0.0,0.0,77,0.00,,,0.00,pywws,2013-05-18 19:41:00,
2013-05-18 12:46:00,56.7,49.5,30.19,North,-999,0.0,0.0,77,0.00,,,0.00,pywws,2013-05-18 19:46:00,
2013-05-18 12:51:00,56.7,49.5,30.19,NW,315,1.6,2.2,77,0.00,,,0.00,pywws,2013-05-18 19:51:00,
2013-05-18 13:01:00,57.2,48.3,30.19,North,-999,0.0,0.0,72,0.00,,,0.00,pywws,2013-05-18 20:01:00,
2013-05-18 13:06:00,57.0,48.4,30.19,North,-999,0.0,0.0,73,0.00,,,0.00,pywws,2013-05-18 20:06:00,
2013-05-18 13:11:00,55.6,47.8,30.19,North,-999,0.0,0.0,75,0.01,,,0.01,pywws,2013-05-18 20:11:00,
2013-05-18 13:16:00,55.6,48.5,30.20,North,-999,0.0,0.0,77,0.01,,,0.01,pywws,2013-05-18 20:16:00,
2013-05-18 13:21:00,54.5,47.4,30.20,North,-999,0.0,0.0,77,0.01,,,0.01,pywws,2013-05-18 20:21:00,
2013-05-18 13:26:00,54.1,47.8,30.21,North,-999,0.0,0.0,79,0.01,,,0.01,pywws,2013-05-18 20:26:00,
2013-05-18 13:31:00,53.4,47.7,30.21,North,-999,0.0,0.0,81,0.02,,,0.02,pywws,2013-05-18 20:31:00,
2013-05-18 13:36:00,53.8,48.1,30.20,North,-999,0.0,0.0,81,0.02,,,0.02,pywws,2013-05-18 20:36:00,
2013-05-18 13:41:00,54.3,48.9,30.21,North,-999,0.0,0.0,82,0.02,,,0.02,pywws,2013-05-18 20:41:00,
2013-05-18 13:46:00,54.5,49.4,30.21,North,-999,0.0,0.0,83,0.02,,,0.02,pywws,2013-05-18 20:46:00,
2013-05-18 13:51:00,54.7,49.6,30.21,North,-999,0.0,0.0,83,0.02,,,0.02,pywws,2013-05-18 20:51:00,
2013-05-18 14:01:00,54.5,49.4,30.21,North,-999,0.0,0.0,83,0.02,,,0.02,pywws,2013-05-18 21:01:00,
2013-05-18 14:06:00,53.6,48.2,30.21,North,-999,0.0,0.0,82,0.02,,,0.02,pywws,2013-05-18 21:06:00,
2013-05-18 14:11:00,53.6,48.2,30.21,SE,135,0.7,1.6,82,0.01,,,0.02,pywws,2013-05-18 21:11:00,
2013-05-18 14:16:00,53.4,48.4,30.22,North,-999,0.0,0.0,83,0.01,,,0.02,pywws,2013-05-18 21:16:00,
2013-05-18 14:21:00,53.8,48.7,30.22,North,-999,0.0,0.0,83,0.01,,,0.02,pywws,2013-05-18 21:21:00,
2013-05-18 14:26:00,54.5,49.4,30.21,North,-999,0.0,0.0,83,0.01,,,0.02,pywws,2013-05-18 21:26:00,
2013-05-18 14:31:00,55.9,51.5,30.21,North,-999,0.0,0.0,85,0.00,,,0.02,pywws,2013-05-18 21:31:00,
2013-05-18 14:36:00,55.9,50.9,30.21,North,-999,0.0,0.0,83,0.00,,,0.02,pywws,2013-05-18 21:36:00,
2013-05-18 14:41:00,56.5,50.7,30.21,SW,225,0.7,2.2,81,0.00,,,0.02,pywws,2013-05-18 21:41:00,
2013-05-18 14:46:00,56.7,48.5,30.21,North,-999,0.0,0.0,74,0.00,,,0.02,pywws,2013-05-18 21:46:00,
2013-05-18 14:51:00,56.7,49.2,30.21,North,-999,0.0,0.0,76,0.00,,,0.02,pywws,2013-05-18 21:51:00,
2013-05-18 15:01:00,56.7,48.8,30.21,South,180,0.7,2.2,75,0.00,,,0.02,pywws,2013-05-18 22:01:00,
2013-05-18 15:06:00,57.4,48.1,30.21,North,-999,0.0,1.6,71,0.00,,,0.02,pywws,2013-05-18 22:06:00,
2013-05-18 15:11:00,57.2,49.3,30.21,North,-999,0.0,0.0,75,0.00,,,0.02,pywws,2013-05-18 22:11:00,
2013-05-18 15:16:00,57.4,49.5,30.21,North,-999,0.0,0.0,75,0.00,,,0.02,pywws,2013-05-18 22:16:00,
2013-05-18 15:21:00,57.2,49.3,30.22,North,-999,0.0,0.0,75,0.00,,,0.02,pywws,2013-05-18 22:21:00,
2013-05-18 15:26:00,57.4,49.2,30.22,North,-999,0.0,0.0,74,0.00,,,0.02,pywws,2013-05-18 22:26:00,
2013-05-18 15:31:00,57.4,49.2,30.22,North,-999,0.0,0.0,74,0.00,,,0.02,pywws,2013-05-18 22:31:00,
2013-05-18 15:36:00,56.7,48.5,30.22,North,-999,0.0,0.0,74,0.00,,,0.02,pywws,2013-05-18 22:36:00,
2013-05-18 15:41:00,57.2,49.3,30.22,North,-999,0.0,0.0,75,0.00,,,0.02,pywws,2013-05-18 22:41:00,
2013-05-18 15:46:00,56.5,49.0,30.22,North,-999,0.0,0.0,76,0.00,,,0.02,pywws,2013-05-18 22:46:00,
2013-05-18 15:51:00,56.1,48.3,30.22,North,-999,0.0,0.0,75,0.00,,,0.02,pywws,2013-05-18 22:51:00,
2013-05-18 16:01:00,56.1,48.7,30.22,North,-999,0.0,0.0,76,0.00,,,0.02,pywws,2013-05-18 23:01:00,
2013-05-18 16:06:00,55.9,48.8,30.22,North,-999,0.0,0.0,77,0.00,,,0.02,pywws,2013-05-18 23:06:00,
2013-05-18 16:11:00,56.3,49.5,30.22,North,-999,0.0,0.0,78,0.00,,,0.02,pywws,2013-05-18 23:11:00,
2013-05-18 16:16:00,56.8,50.1,30.22,North,-999,0.0,0.0,78,0.00,,,0.02,pywws,2013-05-18 23:16:00,
2013-05-18 16:21:00,57.4,49.9,30.22,North,-999,0.0,0.0,76,0.00,,,0.02,pywws,2013-05-18 23:21:00,
2013-05-18 16:26:00,58.5,50.9,30.22,North,-999,0.0,0.0,76,0.00,,,0.02,pywws,2013-05-18 23:26:00,
2013-05-18 16:31:00,58.1,49.5,30.22,East,90,0.7,3.8,73,0.00,,,0.02,pywws,2013-05-18 23:31:00,
2013-05-18 16:36:00,59.0,50.4,30.22,North,-999,0.0,0.0,73,0.00,,,0.02,pywws,2013-05-18 23:36:00,
2013-05-18 16:41:00,58.5,49.1,30.22,North,-999,0.0,0.0,71,0.00,,,0.02,pywws,2013-05-18 23:41:00,
2013-05-18 16:46:00,59.0,50.0,30.23,North,-999,0.0,0.0,72,0.00,,,0.02,pywws,2013-05-18 23:46:00,
2013-05-18 16:51:00,57.6,48.2,30.22,North,-999,0.0,0.0,71,0.00,,,0.02,pywws,2013-05-18 23:51:00,
2013-05-18 17:01:00,57.4,48.8,30.23,North,-999,0.0,0.0,73,0.00,,,0.02,pywws,2013-05-19 00:01:00,
2013-05-18 17:05:00,57.4,49.5,30.23,North,-999,0.0,0.0,75,0.00,,,0.02,pywws,2013-05-19 00:05:00,
2013-05-18 17:10:00,56.5,49.0,30.23,North,-999,0.0,0.0,76,0.00,,,0.02,pywws,2013-05-19 00:10:00,
2013-05-18 17:15:00,56.7,48.8,30.23,North,-999,0.0,0.0,75,0.00,,,0.02,pywws,2013-05-19 00:15:00,
2013-05-18 17:20:00,56.5,49.0,30.23,North,-999,0.0,0.0,76,0.00,,,0.02,pywws,2013-05-19 00:20:00,
2013-05-18 17:25:00,56.3,49.2,30.24,North,-999,0.0,0.0,77,0.00,,,0.02,pywws,2013-05-19 00:25:00,
2013-05-18 17:30:00,56.3,48.8,30.23,North,-999,0.0,0.0,76,0.00,,,0.02,pywws,2013-05-19 00:30:00,
2013-05-18 17:35:00,56.1,48.7,30.23,North,-999,0.0,0.0,76,0.00,,,0.02,pywws,2013-05-19 00:35:00,
2013-05-18 17:40:00,56.3,48.8,30.23,North,-999,0.0,0.7,76,0.00,,,0.02,pywws,2013-05-19 00:40:00,
2013-05-18 17:45:00,56.3,49.2,30.23,North,-999,0.0,0.0,77,0.00,,,0.02,pywws,2013-05-19 00:45:00,
2013-05-18 17:50:00,57.2,49.7,30.23,North,-999,0.0,0.0,76,0.00,,,0.02,pywws,2013-05-19 00:50:00,
2013-05-18 18:01:00,57.2,49.7,30.23,North,-999,0.0,0.0,76,0.00,,,0.02,pywws,2013-05-19 01:01:00,
2013-05-18 18:06:00,57.6,50.4,30.23,North,-999,0.0,0.0,77,0.00,,,0.02,pywws,2013-05-19 01:06:00,
2013-05-18 18:11:00,57.4,49.9,30.23,North,-999,0.0,0.0,76,0.00,,,0.02,pywws,2013-05-19 01:11:00,
2013-05-18 18:16:00,57.2,49.7,30.23,North,-999,0.0,0.0,76,0.00,,,0.02,pywws,2013-05-19 01:16:00,
2013-05-18 18:21:00,56.7,49.5,30.24,North,-999,0.0,0.0,77,0.00,,,0.02,pywws,2013-05-19 01:21:00,
2013-05-18 18:26:00,56.7,49.5,30.23,North,-999,0.0,0.0,77,0.00,,,0.02,pywws,2013-05-19 01:26:00,
2013-05-18 18:31:00,57.0,50.6,30.24,North,-999,0.0,0.0,79,0.00,,,0.02,pywws,2013-05-19 01:31:00,
2013-05-18 18:36:00,56.8,50.1,30.24,North,-999,0.0,0.0,78,0.00,,,0.02,pywws,2013-05-19 01:36:00,
2013-05-18 18:41:00,57.0,50.6,30.24,North,-999,0.0,0.0,79,0.00,,,0.02,pywws,2013-05-19 01:41:00,
2013-05-18 18:46:00,56.8,50.4,30.24,North,-999,0.0,0.0,79,0.00,,,0.02,pywws,2013-05-19 01:46:00,
2013-05-18 18:51:00,57.0,50.6,30.24,North,-999,0.0,0.0,79,0.00,,,0.02,pywws,2013-05-19 01:51:00,
2013-05-18 19:01:00,56.8,50.4,30.24,North,-999,0.0,0.0,79,0.00,,,0.02,pywws,2013-05-19 02:01:00,
2013-05-18 19:06:00,57.0,50.9,30.24,North,-999,0.0,0.0,80,0.00,,,0.02,pywws,2013-05-19 02:06:00,
2013-05-18 19:11:00,56.5,49.7,30.24,North,-999,0.0,0.0,78,0.00,,,0.02,pywws,2013-05-19 02:11:00,
2013-05-18 19:16:00,56.7,49.9,30.24,North,-999,0.0,0.0,78,0.00,,,0.02,pywws,2013-05-19 02:16:00,
2013-05-18 19:21:00,56.8,50.4,30.24,North,-999,0.0,0.0,79,0.00,,,0.02,pywws,2013-05-19 02:21:00,
2013-05-18 19:26:00,56.8,50.1,30.24,North,-999,0.0,0.0,78,0.00,,,0.02,pywws,2013-05-19 02:26:00,
2013-05-18 19:31:00,57.0,50.6,30.24,North,-999,0.0,0.0,79,0.00,,,0.02,pywws,2013-05-19 02:31:00,
2013-05-18 19:36:00,57.0,50.9,30.24,North,-999,0.0,0.0,80,0.00,,,0.02,pywws,2013-05-19 02:36:00,
2013-05-18 19:41:00,56.7,50.9,30.24,North,-999,0.0,0.0,81,0.00,,,0.02,pywws,2013-05-19 02:41:00,
2013-05-18 19:46:00,56.1,50.0,30.24,North,-999,0.0,0.0,80,0.00,,,0.02,pywws,2013-05-19 02:46:00,
2013-05-18 19:51:00,55.8,49.3,30.24,North,-999,0.0,0.0,79,0.00,,,0.02,pywws,2013-05-19 02:51:00,
2013-05-18 20:01:00,55.4,48.7,30.24,North,-999,0.0,0.0,78,0.00,,,0.02,pywws,2013-05-19 03:01:00,
2013-05-18 20:06:00,54.7,49.0,30.25,North,-999,0.0,0.0,81,0.00,,,0.02,pywws,2013-05-19 03:06:00,
2013-05-18 20:11:00,54.7,49.0,30.25,North,-999,0.0,0.0,81,0.00,,,0.02,pywws,2013-05-19 03:11:00,
2013-05-18 20:16:00,54.5,48.8,30.25,North,-999,0.0,0.0,81,0.00,,,0.02,pywws,2013-05-19 03:16:00,
2013-05-18 20:21:00,54.5,49.1,30.26,North,-999,0.0,0.0,82,0.00,,,0.02,pywws,2013-05-19 03:21:00,
2013-05-18 20:26:00,54.3,48.9,30.26,North,-999,0.0,0.0,82,0.00,,,0.02,pywws,2013-05-19 03:26:00,
2013-05-18 20:31:00,54.0,48.6,30.26,North,-999,0.0,0.0,82,0.00,,,0.02,pywws,2013-05-19 03:31:00,
2013-05-18 20:36:00,54.0,48.9,30.26,North,-999,0.0,0.0,83,0.00,,,0.02,pywws,2013-05-19 03:36:00,
2013-05-18 20:41:00,53.8,48.7,30.26,North,-999,0.0,0.0,83,0.00,,,0.02,pywws,2013-05-19 03:41:00,
2013-05-18 20:46:00,53.8,48.7,30.26,North,-999,0.0,0.0,83,0.00,,,0.02,pywws,2013-05-19 03:46:00,
2013-05-18 20:51:00,53.6,48.6,30.26,North,-999,0.0,0.0,83,0.00,,,0.02,pywws,2013-05-19 03:51:00,
2013-05-18 20:56:00,53.6,48.6,30.26,North,-999,0.0,0.0,83,0.00,,,0.02,pywws,2013-05-19 03:56:00,
2013-05-18 21:01:00,53.4,48.7,30.27,North,-999,0.0,0.0,84,0.00,,,0.02,pywws,2013-05-19 04:01:00,
2013-05-18 21:06:00,53.4,48.7,30.27,North,-999,0.0,0.0,84,0.00,,,0.02,pywws,2013-05-19 04:06:00,
2013-05-18 21:11:00,53.4,49.0,30.27,North,-999,0.0,0.0,85,0.00,,,0.02,pywws,2013-05-19 04:11:00,
2013-05-18 21:16:00,53.4,49.0,30.27,North,-999,0.0,0.0,85,0.00,,,0.02,pywws,2013-05-19 04:16:00,
2013-05-18 21:21:00,53.4,49.0,30.28,North,-999,0.0,0.0,85,0.00,,,0.02,pywws,2013-05-19 04:21:00,
2013-05-18 21:26:00,53.4,49.0,30.28,North,-999,0.0,0.0,85,0.00,,,0.02,pywws,2013-05-19 04:26:00,
2013-05-18 21:31:00,53.4,49.0,30.28,North,-999,0.0,0.0,85,0.00,,,0.02,pywws,2013-05-19 04:31:00,
2013-05-18 21:36:00,53.4,49.0,30.28,North,-999,0.0,0.0,85,0.00,,,0.02,pywws,2013-05-19 04:36:00,
2013-05-18 21:41:00,53.4,49.0,30.28,North,-999,0.0,0.0,85,0.00,,,0.02,pywws,2013-05-19 04:41:00,
2013-05-18 21:46:00,53.4,48.7,30.29,North,-999,0.0,0.0,84,0.00,,,0.02,pywws,2013-05-19 04:46:00,
2013-05-18 21:51:00,53.2,48.5,30.29,North,-999,0.0,0.0,84,0.00,,,0.02,pywws,2013-05-19 04:51:00,
2013-05-18 21:56:00,53.2,48.5,30.29,North,-999,0.0,0.0,84,0.00,,,0.02,pywws,2013-05-19 04:56:00,
2013-05-18 22:01:00,53.2,48.5,30.29,North,-999,0.0,0.0,84,0.00,,,0.02,pywws,2013-05-19 05:01:00,
2013-05-18 22:06:00,53.2,48.8,30.29,North,-999,0.0,0.0,85,0.00,,,0.02,pywws,2013-05-19 05:06:00,
2013-05-18 22:11:00,53.1,48.7,30.29,North,-999,0.0,0.0,85,0.00,,,0.02,pywws,2013-05-19 05:11:00,
2013-05-18 22:16:00,53.1,48.7,30.29,North,-999,0.0,0.0,85,0.00,,,0.02,pywws,2013-05-19 05:16:00,
2013-05-18 22:21:00,53.1,48.7,30.29,North,-999,0.0,0.0,85,0.00,,,0.02,pywws,2013-05-19 05:21:00,
2013-05-18 22:26:00,52.9,48.5,30.29,North,-999,0.0,0.0,85,0.00,,,0.02,pywws,2013-05-19 05:26:00,
2013-05-18 22:31:00,52.9,48.5,30.29,North,-999,0.0,0.0,85,0.00,,,0.02,pywws,2013-05-19 05:31:00,
2013-05-18 22:36:00,53.1,48.7,30.29,North,-999,0.0,0.0,85,0.00,,,0.02,pywws,2013-05-19 05:36:00,
2013-05-18 22:41:00,53.1,48.7,30.29,North,-999,0.0,0.0,85,0.00,,,0.02,pywws,2013-05-19 05:41:00,
2013-05-18 22:46:00,53.2,48.8,30.29,North,-999,0.0,0.0,85,0.00,,,0.02,pywws,2013-05-19 05:46:00,
2013-05-18 22:51:00,53.6,48.9,30.30,North,-999,0.0,0.0,84,0.00,,,0.02,pywws,2013-05-19 05:51:00,
2013-05-18 22:56:00,53.4,49.0,30.30,North,-999,0.0,0.0,85,0.00,,,0.02,pywws,2013-05-19 05:56:00,
2013-05-18 23:01:00,53.6,48.9,30.29,North,-999,0.0,0.0,84,0.00,,,0.02,pywws,2013-05-19 06:01:00,
2013-05-18 23:06:00,53.6,48.9,30.30,North,-999,0.0,0.0,84,0.00,,,0.02,pywws,2013-05-19 06:06:00,
2013-05-18 23:11:00,53.2,48.8,30.30,North,-999,0.0,0.0,85,0.00,,,0.02,pywws,2013-05-19 06:11:00,
2013-05-18 23:16:00,53.2,48.8,30.30,North,-999,0.0,0.0,85,0.00,,,0.02,pywws,2013-05-19 06:16:00,
2013-05-18 23:21:00,53.4,49.0,30.30,North,-999,0.0,0.0,85,0.00,,,0.02,pywws,2013-05-19 06:21:00,
2013-05-18 23:26:00,53.6,48.9,30.30,North,-999,0.0,0.0,84,0.00,,,0.02,pywws,2013-05-19 06:26:00,
2013-05-18 23:31:00,53.2,48.8,30.30,North,-999,0.0,0.0,85,0.00,,,0.02,pywws,2013-05-19 06:31:00,
2013-05-18 23:36:00,53.2,48.8,30.30,North,-999,0.0,0.0,85,0.00,,,0.02,pywws,2013-05-19 06:36:00,
2013-05-18 23:41:00,53.2,48.8,30.30,North,-999,0.0,0.0,85,0.00,,,0.02,pywws,2013-05-19 06:41:00,
2013-05-18 23:46:00,53.6,48.9,30.30,North,-999,0.0,0.0,84,0.00,,,0.02,pywws,2013-05-19 06:46:00,
2013-05-18 23:51:00,53.6,48.6,30.30,North,-999,0.0,0.0,83,0.00,,,0.02,pywws,2013-05-19 06:51:00,
2013-05-18 23:56:00,53.8,49.1,30.30,North,-999,0.0,0.0,84,0.00,,,0.02,pywws,2013-05-19 06:56:00,